Chadron, NE

6:26 AM MDT on September 28, 2016 (GMT -0600)
Chadron Municipal

Weather History for KCDR - February, 2013

Change the Weather History Date:

Tuesday, February 26, 2013

  Actual Average Record
Temperature  
Mean Temperature 31 °F 30 °F  
Max Temperature 44 °F 45 °F 72 °F (1950)
Min Temperature 18 °F 15 °F -22 °F (1934)
Degree Days  
Heating Degree Days 34 35  
Month to date heating degree days 894 985  
Since 1 July heating degree days 4832 5184  
Cooling Degree Days 0 0  
Month to date cooling degree days 0 0  
Year to date cooling degree days 0 0  
Moisture  
Dew Point 21 °F    
Average Humidity 62    
Maximum Humidity 84    
Minimum Humidity 39    
Precipitation  
Precipitation T in 0.03 in 1.50 in (2000)
Month to date precipitation 0.24 0.55  
Year to date precipitation 0.72 0.91  
Sea Level Pressure  
Sea Level Pressure 30.01 in    
Wind  
Wind Speed 9 mph (NNW)    
Max Wind Speed 30 mph    
Max Gust Speed 38 mph    
Visibility 10 miles    
Events      
T = Trace of Precipitation, MM = Missing Value Source: NWS Daily Summary

Daily Weather History Graph

Daily Weather History Graph

Search for Another Location

Airport or City:

Trip Planner

Search our weather history database for the weather conditions in past years. The results will help you decide how hot, cold, wet, or windy it might be!

Date:

Astronomy

Feb. 26, 2013 Rise Set
Actual Time 6:32 AM MST 5:38 PM MST
Civil Twilight 6:04 AM MST 6:07 PM MST
Nautical Twilight 5:31 AM MST 6:39 PM MST
Astronomical Twilight 4:58 AM MST 7:12 PM MST
Moon 7:00 PM MST (2/26) 6:33 AM MST (2/26)
Length of Visible Light 12h 02m
Length of Day
11h 05m
Full, 99% of the Moon is Illuminated
Feb 26
Full
Mar 4
Last Quarter
Mar 11
New
Mar 19
First Quarter
Mar 27
Full

Hourly Weather History & Observations

Time (MST) Temp. Windchill Dew Point Humidity Pressure Visibility Wind Dir Wind Speed Gust Speed Precip Events Conditions
12:53 AM 21.0 °F - 17.1 °F 85% 29.92 in 10.0 mi Calm Calm - N/A   Clear
1:53 AM 23.0 °F - 16.0 °F 74% 29.90 in 10.0 mi Calm Calm - N/A   Clear
2:53 AM 21.0 °F 16.2 °F 16.0 °F 81% 29.89 in 10.0 mi SW 3.5 mph - N/A   Clear
3:53 AM 19.0 °F 12.3 °F 15.1 °F 85% 29.90 in 10.0 mi West 4.6 mph - N/A   Clear
4:53 AM 19.0 °F 12.3 °F 14.0 °F 81% 29.92 in 10.0 mi WSW 4.6 mph - N/A   Clear
5:53 AM 18.0 °F 12.7 °F 14.0 °F 84% 29.94 in 10.0 mi SW 3.5 mph - N/A   Clear
6:53 AM 19.0 °F - 15.1 °F 85% 29.96 in 10.0 mi Calm Calm - N/A   Clear
7:53 AM 23.0 °F 12.4 °F 17.1 °F 78% 29.96 in 10.0 mi SW 10.4 mph - N/A   Clear
8:53 AM 28.9 °F 22.8 °F 21.0 °F 72% 29.97 in 10.0 mi WNW 5.8 mph - N/A   Clear
9:53 AM 34.0 °F 28.0 °F 21.0 °F 59% 29.96 in 10.0 mi NW 6.9 mph - N/A   Clear
10:53 AM 37.0 °F 34.5 °F 21.9 °F 54% 29.95 in 10.0 mi Variable 3.5 mph - N/A   Clear
11:53 AM 41.0 °F 38.0 °F 23.0 °F 49% 29.95 in 10.0 mi North 4.6 mph - N/A   Clear
12:53 PM 41.0 °F 38.0 °F 23.0 °F 49% 29.94 in 10.0 mi Variable 4.6 mph - N/A   Mostly Cloudy
1:53 PM 42.1 °F 32.1 °F 23.0 °F 47% 29.94 in 10.0 mi North 25.3 mph 34.5 mph N/A   Mostly Cloudy
2:53 PM 42.1 °F 33.9 °F 19.9 °F 41% 29.97 in 10.0 mi NNE 17.3 mph 33.4 mph N/A   Partly Cloudy
3:53 PM 39.9 °F 31.1 °F 21.9 °F 49% 30.01 in 10.0 mi North 17.3 mph - N/A   Overcast
4:53 PM 37.0 °F 28.1 °F 27.0 °F 67% 30.05 in 10.0 mi NNE 15.0 mph - N/A   Scattered Clouds
5:53 PM 35.1 °F 24.8 °F 26.1 °F 70% 30.09 in 10.0 mi North 17.3 mph - N/A   Clear
6:53 PM 34.0 °F 26.6 °F 26.1 °F 73% 30.13 in 10.0 mi North 9.2 mph - N/A   Overcast
7:53 PM 35.1 °F 24.8 °F 26.1 °F 70% 30.14 in 10.0 mi North 17.3 mph - N/A   Overcast
8:53 PM 34.0 °F 26.6 °F 26.1 °F 73% 30.16 in 10.0 mi North 9.2 mph - 0.00 in   Overcast
9:53 PM 35.1 °F 24.8 °F 25.0 °F 67% 30.16 in 10.0 mi North 17.3 mph 23.0 mph N/A   Overcast
10:53 PM 33.1 °F 28.7 °F 26.1 °F 75% 30.17 in 10.0 mi WNW 4.6 mph - N/A   Overcast
11:40 PM 32.0 °F 27.5 °F 26.6 °F 80% 30.10 in 10.0 mi NW 4.6 mph - N/A   Overcast
11:53 PM 32.0 °F 26.4 °F 25.0 °F 75% 30.19 in 10.0 mi NNW 5.8 mph - N/A   Overcast